Regional Weather Roundup
Issued by NWS

Home | Current Version | Previous Version | Text Only | Print | Product List | Glossary Off
Versions: 1 2 3 4 5 6 7 8 9 10 11 12 13 14 15 16 17 18 19 20 21 22 23 24 25 26 27 28 29 30 31 32 33 34 35 36 37 38 39 40 41 42 43 44 45 46 47 48 49 50

000
ASUS43 KBIS 212210
RWRND

NORTH DAKOTA REGIONAL WEATHER ROUNDUP
NATIONAL WEATHER SERVICE BISMARCK ND
400 PM CST TUE NOV 21 2017

NOTE: "FAIR" INDICATES FEW OR NO CLOUDS BELOW 12,000 FEET WITH NO
SIGNIFICANT WEATHER AND/OR OBSTRUCTIONS TO VISIBILITY.


NDZ001>003-009>011-017-212300-
NORTHWEST NORTH DAKOTA

CITY           SKY/WX    TMP DP  RH WIND       PRES   REMARKS
WILLISTON      CLEAR     16  -1  47 W6        30.32F WCI   7
MINOT          CLEAR     16   4  59 W10       30.32S WCI   4
MINOT AFB      CLOUDY    14   3  62 NW12      30.31S WCI   0
$$

NDZ018>021-031>035-040>046-212300-
SOUTHWEST NORTH DAKOTA

CITY           SKY/WX    TMP DP  RH WIND       PRES   REMARKS
BISMARCK       CLOUDY    24   7  48 NW7       30.35F WCI  16
DICKINSON      CLEAR     20   1  43 NW8       30.25S WCI  10
GARRISON         N/A     14   5  67 NW14      30.32S WCI  -1
HETTINGER ARPT CLEAR     24   1  36 W10       30.29S WCI  14
$$

NDZ004>008-012>016-024-026-027-054-212300-
NORTHEAST NORTH DAKOTA

CITY           SKY/WX    TMP DP  RH WIND       PRES   REMARKS
GRAND FORKS    MOCLDY    21  13  71 NW12      30.33R WCI   9
GRND FRKS AFB  CLEAR     20  10  65 NW14      30.32S WCI   7
DEVILS LAKE    CLOUDY    15   9  76 W16       30.32F WCI  -1
$$

NDZ022-023-025-028>030-036>039-047>053-212300-
SOUTHEAST NORTH DAKOTA

CITY           SKY/WX    TMP DP  RH WIND       PRES   REMARKS
FARGO          CLEAR     22  10  60 NW16      30.34R WCI   8
JAMESTOWN      CLOUDY    17   6  62 NW17      30.33S WCI   1
$$





USA.gov is the U.S. government's official web portal to all federal, state and local government web resources and services.